Location: Ravensburg
(47.7866°N, 9.6124°E)
Time: 06:43:01
(UTC+02:00)

AO-73 - Pass Details

Date: 19 March 2026
Orbit: 514 x 567 km, 97.8° (Epoch: 17 April)

Event Time Altitude Azimuth Distance (km) Brightness Sun altitude
Rises 04:37:19 0° 8° (N) 2,663 ? -18.9°
Reaches altitude 10° 04:39:28 10° 3° (N) 1,763 ? -18.5°
Maximum altitude 04:43:09 49° 288° (WNW) 674 ? -17.9°
Enters shadow 04:43:45 44° 256° (WSW) 724 ? -17.8°
